Voltar ao catálogo

STARLINK-5789

AtivoComunicaçõesVLEO
NORAD 56003·PAYLOAD·🇺🇸 United States

Lançado Mar 24, 2023 de Cape Canaveral Space Force Station

Loading…

Próximas Passagens (próximas 24 horas)

TLE

AtualizadoSource: CelesTrak SupGP

Época: Sep 15, 2026, 02:26 UTC

1 56003C 23042T   26258.10187500 -.00039784  00000+0 -14406-2 0  2587
2 56003  43.0000  70.1602 0002438 249.2888 143.6677 15.27605453    10

Acompanhe STARLINK-5789 em tempo real com AllMySat

Download on the App Store